[[{"header":{"parameterUnit":"m.s-1","parameterCategory":1,"la1":30.2991,"la2":30.254,"lo1":-89.0895,"lo2":-89.0444,"dy":0.0017,"dx":0.0017,"nx":28,"ny":28,"refTime":"2025-03-22T03:00:00:Z","depth":0,"parameterNumber":2,"parameterNumberName":"U-component_of_WINDS"},"data":[0,0,0,0,0,0,0,0,0,0,0,0,0,0,0,0,0,0,0,0,0,0,0,0,0,0,0,0,0,0,0,0,0,0,0,0,0,0,0,0,0,0,0,0,0,0,0,0,0,0,0,0,0,0,0,0,0,0,1.3031,1.3033,0,1.3219,1.3222,1.3224,1.3273,1.3272,1.3271,1.3269,1.3464,1.347,1.3476,0,0,0,0,0,0,0,0,0,0,0,0,0,1.2715,1.2721,1.3031,1.3034,1.3036,1.3219,1.3222,1.3224,1.3273,1.3272,1.327,1.3269,1.3462,1.3469,1.3477,0,0,0,0,0,0,0,0,0,0,0,0,0,1.2873,1.2723,1.3031,1.3082,1.3089,1.3219,1.3222,1.3225,1.3273,1.3272,1.327,1.3268,1.3459,1.3469,1.3478,1.357,0,0,1.3506,1.351,0,0,0,0,0,0,0,0,1.2864,1.2884,1.3072,1.3079,1.3087,1.3221,1.3182,1.3341,1.3274,1.3203,1.3269,1.3267,1.3385,1.34,1.3439,1.3579,1.3588,1.3507,1.3513,1.3517,1.352,0,0,0,0,0,0,0,1.2853,1.2877,1.3106,1.3075,1.3084,1.3096,1.3117,1.3212,1.3301,1.3209,1.3213,1.3235,1.3388,1.343,1.3444,1.359,1.3507,1.3515,1.3521,1.3525,1.3815,1.3817,0,0,0,0,0,0,1.2833,1.2867,1.31,1.3111,1.2969,1.3103,1.3126,1.318,1.33,1.3317,1.3236,1.3236,1.3415,1.3433,1.3451,1.3566,1.3517,1.3526,1.3531,1.3813,1.3815,1.3818,0,0,0,0,0,0,1.2826,1.2853,1.3092,1.2991,1.3022,1.3111,1.317,1.3184,1.3226,1.3321,1.3337,1.3262,1.3414,1.3438,1.354,1.3574,1.353,1.3538,1.381,1.3814,1.3816,1.3798,0,0,0,0,0,0,1.2817,1.285,1.2886,1.2991,1.3027,1.3177,1.3172,1.3189,1.3242,1.3244,1.335,1.3366,1.3415,1.3526,1.3549,1.3586,1.3546,1.3808,1.3812,1.3815,1.3796,1.38,1.3803,0,0,0,0,0,1.2805,1.2874,1.2888,1.2916,1.3074,1.3179,1.32,1.3254,1.3244,1.3281,1.3342,1.3362,1.3566,1.3536,1.3563,1.3603,1.3806,1.3811,1.3815,1.3794,1.3799,1.3803,0,0,0,0,0,0,1.2772,1.2889,1.2905,1.301,1.3084,1.3187,1.3235,1.3258,1.3337,1.3336,1.3401,1.3425,1.3522,1.3573,1.3536,1.3698,1.3686,1.3696,1.3661,1.3666,1.367,1.3655,1.3554,0,0,0,0,0,1.2777,1.2852,1.2951,1.3033,1.307,1.3146,1.3194,1.3229,1.3309,1.3341,1.3409,1.3486,1.3568,1.362,1.37,1.3803,1.3827,1.3844,1.3848,1.3851,1.3859,1.3916,1.3924,1.3833,1.3833,1.3833,0,0,1.2787,1.2861,1.2905,1.3029,1.309,1.3167,1.3172,1.3254,1.3311,1.3354,1.3453,1.3506,1.3597,1.3699,1.3748,1.3744,1.3889,1.3857,1.3858,1.3865,1.3921,1.393,1.3938,1.3836,1.3836,1.3835,0,0,1.2846,1.2909,1.2985,1.3046,1.3139,1.3189,1.3207,1.3307,1.3343,1.3444,1.3477,1.3547,1.3686,1.3749,1.3799,1.388,1.3901,1.3905,1.3924,1.3979,1.3986,1.3993,1.4021,1.403,1.3912,1.3912,1.3912,0,1.2848,1.2964,1.3021,1.31,1.3153,1.3195,1.3271,1.3328,1.3443,1.3479,1.3473,1.3648,1.3712,1.3829,1.3848,1.3888,1.391,1.3892,1.3981,1.3988,1.3995,1.4022,1.4033,1.3912,1.3912,1.3912,1.3912,0,1.2961,1.3041,1.3091,1.32,1.3259,1.3336,1.3404,1.3458,1.3488,1.3538,1.364,1.3718,1.3814,1.3845,1.3876,1.3967,1.3962,1.3968,1.3957,1.4002,1.4029,1.404,1.3911,1.3912,1.3912,1.3912,0,0,1.3004,1.3142,1.3159,1.3208,1.3313,1.3377,1.3456,1.3549,1.3593,1.3671,1.3739,1.3855,1.3861,1.3918,1.3956,1.4004,1.4062,1.4005,1.4008,1.4012,1.4166,1.4159,1.4171,1.4077,1.408,1.4081,1.4158,0,1.3074,1.3217,1.327,1.3386,1.3461,1.3501,1.357,1.3642,1.3691,1.3762,1.3817,1.3898,1.39,1.3935,1.3984,1.4044,1.4094,1.404,1.4141,1.4144,1.4116,1.4185,1.4179,1.4247,1.4169,1.417,1.4172,0,1.3176,1.3253,1.3377,1.3472,1.3505,1.3566,1.3656,1.3723,1.3805,1.3838,1.39,1.3935,1.402,1.4004,1.4122,1.4084,1.4128,1.4164,1.4168,1.4179,1.416,1.4197,1.4271,1.428,1.4189,1.4188,1.4186,0,1.3193,1.3329,1.342,1.3461,1.3574,1.3616,1.3665,1.3746,1.3798,1.3877,1.3911,1.3999,1.4046,1.4113,1.4171,1.4154,1.4282,1.4272,1.4311,1.431,1.4336,1.4333,1.4417,1.4366,1.4366,1.4366,1.4366,0,1.3266,1.334,1.3429,1.3485,1.3569,1.3629,1.371,1.3762,1.3834,1.39,1.3941,1.4003,1.4076,1.4147,1.4193,1.4283,1.4304,1.4333,1.4344,1.4329,1.4325,1.4358,1.4354,1.4369,1.4368,1.4367,1.4367,0,1.3299,1.3361,1.3463,1.3562,1.3588,1.3646,1.373,1.3786,1.3837,1.3922,1.3945,1.4025,1.4111,1.4175,1.4287,1.4318,1.4413,1.4425,1.4385,1.439,1.4426,1.4421,1.4533,1.455,1.4488,1.4489,1.4489,0,1.334,1.3398,1.3502,1.3549,1.3598,1.3674,1.3727,1.3789,1.3843,1.394,1.3985,1.4073,1.4147,1.4283,1.4352,1.4438,1.4451,1.4485,1.4465,1.4447,1.4451,1.4446,1.4452,1.4487,1.4487,1.4488,1.4488,0,1.3407,1.3435,1.351,1.3596,1.3658,1.3728,1.38,1.3836,1.391,1.3969,1.4057,1.4114,1.4228,1.4315,1.4408,1.4459,1.4486,1.4494,1.4507,1.4492,1.4465,1.4479,1.4391,1.4491,1.449,1.449,1.449,1.449,1.3445,1.3498,1.3579,1.3661,1.3721,1.3786,1.3843,1.3901,1.3975,1.4072,1.4104,1.4194,1.4275,1.4402,1.4454,1.4526,1.4526,1.4546,1.4551,1.4554,1.4552,1.4454,1.4543,1.4543,1.4543,1.4543,1.4543,0,1.3513,1.3567,1.3642,1.374,1.3804,1.3823,1.3903,1.3955,1.4034,1.4107,1.4179,1.428,1.4364,1.4439,1.4528,1.4571,1.4585,1.4592,1.4589,1.46,1.4548,1.4527,1.4578,1.4578,1.4578,1.4578,1.4578,1.4578,1.3556,1.3646,1.3683,1.3802,1.3857,1.3945,1.3989,1.4049,1.4107,1.4218,1.4288,1.4336,1.441,1.4503,1.4582,1.4602,1.4632,1.4636,1.4658,1.4608,1.4604,1.46,1.458,1.4642,1.4642,1.4704,1.4705,1.4705]},{"header":{"parameterUnit":"m.s-1","parameterCategory":1,"la1":30.2991,"la2":30.254,"lo1":-89.0895,"lo2":-89.0444,"dy":0.0017,"dx":0.0017,"nx":28,"ny":28,"refTime":"2025-03-22T03:00:00:Z","depth":0,"parameterNumber":3,"parameterNumberName":"V-component_of_WINDS"},"data":[0,0,0,0,0,0,0,0,0,0,0,0,0,0,0,0,0,0,0,0,0,0,0,0,0,0,0,0,0,0,0,0,0,0,0,0,0,0,0,0,0,0,0,0,0,0,0,0,0,0,0,0,0,0,0,0,0,0,3.1806,3.1806,0,3.1754,3.1754,3.1753,3.1689,3.1688,3.1687,3.1686,3.1632,3.1631,3.1631,0,0,0,0,0,0,0,0,0,0,0,0,0,3.1849,3.1849,3.1806,3.1806,3.1805,3.1754,3.1753,3.1753,3.1689,3.1688,3.1687,3.1686,3.1632,3.1631,3.1631,0,0,0,0,0,0,0,0,0,0,0,0,0,3.1817,3.1849,3.1806,3.1767,3.1763,3.1754,3.1753,3.1753,3.169,3.1688,3.1687,3.1685,3.1632,3.1632,3.1631,3.1656,0,0,3.1628,3.1628,0,0,0,0,0,0,0,0,3.1819,3.1816,3.1774,3.177,3.1765,3.1727,3.1749,3.172,3.169,3.1718,3.1686,3.1685,3.1665,3.1661,3.1655,3.1653,3.1651,3.1628,3.1628,3.1628,3.1627,0,0,0,0,0,0,0,3.1821,3.1818,3.1785,3.1773,3.1768,3.1752,3.1746,3.1743,3.17,3.1715,3.171,3.1705,3.1662,3.1655,3.1653,3.165,3.1628,3.1628,3.1627,3.1627,3.1665,3.1667,0,0,0,0,0,0,3.183,3.182,3.1787,3.1784,3.1789,3.1752,3.1745,3.1741,3.17,3.1692,3.1706,3.1702,3.1658,3.1654,3.1651,3.1676,3.1628,3.1627,3.1626,3.1664,3.1665,3.1667,0,0,0,0,0,0,3.1831,3.1827,3.1789,3.1801,3.1795,3.1753,3.1748,3.174,3.1734,3.1693,3.1685,3.1708,3.1656,3.1652,3.1655,3.1673,3.1626,3.1626,3.1662,3.1664,3.1666,3.1728,0,0,0,0,0,0,3.1832,3.1828,3.1838,3.1801,3.1794,3.1795,3.1749,3.174,3.1733,3.1727,3.1692,3.1685,3.1655,3.1656,3.1654,3.1671,3.1625,3.166,3.1663,3.1666,3.1724,3.1732,3.1739,0,0,0,0,0,3.1834,3.1857,3.1839,3.1835,3.1805,3.1796,3.1792,3.1757,3.1734,3.1743,3.1717,3.1686,3.1672,3.1657,3.1654,3.1672,3.1659,3.1662,3.1665,3.1721,3.1731,3.1739,0,0,0,0,0,0,3.1897,3.1852,3.183,3.1843,3.1824,3.1785,3.1795,3.1768,3.1755,3.175,3.1706,3.1699,3.1707,3.169,3.1674,3.1693,3.1661,3.1664,3.1704,3.1713,3.172,3.1724,3.1624,0,0,0,0,0,3.1912,3.1909,3.1869,3.1884,3.1876,3.1838,3.1832,3.1807,3.1785,3.1777,3.1751,3.1731,3.1721,3.1716,3.1706,3.1722,3.1712,3.1732,3.1739,3.1746,3.1748,3.1754,3.1762,3.1678,3.1678,3.1678,0,0,3.1943,3.1918,3.1919,3.1896,3.1878,3.1875,3.1831,3.183,3.1827,3.1776,3.1777,3.1758,3.1732,3.1742,3.1745,3.1727,3.177,3.175,3.1755,3.1754,3.1758,3.1766,3.1773,3.168,3.168,3.168,0,0,3.1998,3.198,3.1989,3.1972,3.1946,3.1921,3.1923,3.1889,3.1874,3.1874,3.1836,3.1832,3.1817,3.18,3.179,3.1838,3.1809,3.1836,3.1874,3.188,3.1887,3.1893,3.1909,3.1915,3.1839,3.1839,3.1839,0,3.204,3.2035,3.1997,3.1998,3.1989,3.1943,3.1952,3.1937,3.1909,3.1903,3.1885,3.1865,3.1844,3.1849,3.186,3.1854,3.1854,3.1839,3.1889,3.1894,3.1899,3.1914,3.192,3.1843,3.1842,3.1842,3.1842,0,3.2087,3.2084,3.2095,3.2068,3.206,3.2065,3.2028,3.2024,3.1999,3.1976,3.1976,3.195,3.1933,3.1932,3.1908,3.1933,3.1922,3.1897,3.1864,3.1911,3.1924,3.193,3.1847,3.1846,3.1845,3.1844,0,0,3.218,3.2133,3.2137,3.2124,3.2092,3.2089,3.2091,3.2075,3.2072,3.2054,3.2054,3.2043,3.2019,3.2007,3.198,3.1986,3.2024,3.1959,3.1958,3.1971,3.2048,3.2067,3.2074,3.2005,3.2006,3.2007,3.205,0,3.2228,3.223,3.2196,3.2207,3.2203,3.216,3.2162,3.2142,3.212,3.2112,3.2088,3.208,3.2049,3.2042,3.2046,3.2019,3.2039,3.2016,3.2004,3.2004,3.201,3.2081,3.2101,3.2143,3.2055,3.2056,3.2056,0,3.2285,3.227,3.2281,3.2247,3.2244,3.2247,3.2228,3.2223,3.2199,3.2182,3.2169,3.2139,3.2138,3.2107,3.2104,3.2089,3.2082,3.2069,3.2069,3.2066,3.2032,3.2078,3.2155,3.2161,3.2064,3.2064,3.2063,0,3.235,3.2333,3.2336,3.2327,3.2289,3.2291,3.2275,3.225,3.2242,3.2226,3.222,3.2204,3.2195,3.2183,3.2149,3.213,3.215,3.2116,3.2135,3.2136,3.214,3.214,3.2216,3.2138,3.2138,3.2138,3.2138,0,3.2406,3.2414,3.2365,3.2367,3.2375,3.2336,3.2344,3.2323,3.2301,3.2298,3.226,3.2258,3.2213,3.2206,3.2179,3.218,3.2177,3.2162,3.2155,3.2165,3.2167,3.2159,3.2155,3.2139,3.2139,3.2139,3.2138,0,3.248,3.2447,3.2448,3.2412,3.2403,3.241,3.2378,3.2378,3.2354,3.235,3.2347,3.2309,3.2298,3.2263,3.2243,3.2225,3.2234,3.222,3.2242,3.2237,3.2257,3.2255,3.233,3.2337,3.2256,3.2257,3.2257,0,3.2518,3.2523,3.2487,3.2482,3.2468,3.2461,3.2453,3.2415,3.2407,3.238,3.2383,3.237,3.2356,3.2341,3.231,3.2295,3.228,3.2307,3.2277,3.2287,3.2279,3.2278,3.2278,3.2313,3.2314,3.2315,3.2316,0,3.2588,3.2571,3.2561,3.2545,3.2536,3.2522,3.2505,3.2503,3.246,3.2454,3.2442,3.2432,3.2412,3.2398,3.2378,3.236,3.2331,3.2326,3.2329,3.2339,3.2351,3.2343,3.2258,3.2324,3.2323,3.2323,3.2322,3.2322,3.2643,3.2646,3.2621,3.261,3.2594,3.2579,3.2577,3.2552,3.2542,3.2523,3.2501,3.2492,3.2467,3.2436,3.2421,3.2413,3.2397,3.2402,3.2403,3.2404,3.2409,3.2353,3.2409,3.2409,3.2408,3.2408,3.2408,0,3.2711,3.2692,3.2683,3.2661,3.2653,3.2626,3.2606,3.2601,3.2593,3.2573,3.2561,3.2547,3.2534,3.2502,3.2485,3.2485,3.247,3.2481,3.248,3.2476,3.2424,3.2423,3.2493,3.2493,3.2493,3.2493,3.2493,3.2493,3.2744,3.2746,3.2727,3.272,3.2701,3.2693,3.2683,3.2669,3.2652,3.2639,3.2628,3.2608,3.2582,3.2563,3.2549,3.254,3.2535,3.255,3.2537,3.2488,3.248,3.2473,3.2471,3.255,3.255,3.2589,3.2589,3.259]}]]